| time (UTC) | temp F | wind direction | speed knots | gust knots | rain 1hr in | rain 24hr in | rain mn in | humidity % | barometer mb |
| 20260901233035 | 77 | 76 | 1.7 | 6.1 | 0.00 | 0.01 | 0.00 | 28 | 1019.3 |
| 20260901231538 | 78 | 136 | 2.6 | 7.0 | 0.00 | 0.01 | 0.00 | 28 | 1019.1 |
| 20260901230033 | 78 | 105 | 0.9 | 4.3 | 0.00 | 0.01 | 0.00 | 28 | 1019.3 |
| 20260901224535 | 79 | 114 | 2.6 | 6.1 | 0.00 | 0.01 | 0.00 | 28 | 1019.3 |
| 20260901223031 | 79 | 111 | 3.5 | 7.0 | 0.00 | 0.01 | 0.00 | 29 | 1019.3 |
| 20260901221530 | 80 | 119 | 0.0 | 1.7 | 0.00 | 0.01 | 0.00 | 29 | 1019.6 |
| 20260901220026 | 79 | 102 | 0.0 | 3.5 | 0.00 | 0.01 | 0.00 | 32 | 1019.8 |
| 20260901214523 | 77 | 116 | 0.0 | 1.7 | 0.00 | 0.01 | 0.00 | 35 | 1020.0 |
| 20260901213028 | 77 | 119 | 0.0 | 1.7 | 0.00 | 0.01 | 0.00 | 34 | 1020.0 |
| 20260901211522 | 76 | 120 | 0.9 | 2.6 | 0.00 | 0.01 | 0.00 | 35 | 1020.3 |
| 20260901210020 | 77 | 126 | 1.7 | 7.0 | 0.00 | 0.01 | 0.00 | 35 | 1020.5 |
| 20260901204519 | 76 | 111 | 0.0 | 2.6 | 0.00 | 0.01 | 0.00 | 37 | 1020.6 |
| 20260901203018 | 75 | 137 | 0.9 | 5.2 | 0.00 | 0.01 | 0.00 | 38 | 1020.7 |
| 20260901201516 | 76 | 12 | 0.0 | 2.6 | 0.00 | 0.01 | 0.00 | 39 | 1020.8 |
| 20260901200018 | 76 | 225 | 1.7 | 5.2 | 0.00 | 0.01 | 0.00 | 39 | 1021.0 |
| 20260901194514 | 76 | 115 | 1.7 | 12.2 | 0.00 | 0.01 | 0.00 | 40 | 1021.1 |
| 20260901193014 | 77 | 126 | 2.6 | 7.8 | 0.00 | 0.01 | 0.00 | 37 | 1021.1 |
| 20260901191516 | 77 | 103 | 1.7 | 8.7 | 0.00 | 0.01 | 0.00 | 40 | 1021.2 |
| 20260901190013 | 76 | 115 | 3.5 | 7.8 | 0.00 | 0.01 | 0.00 | 42 | 1021.4 |
| 20260901184507 | 75 | 126 | 3.5 | 10.4 | 0.00 | 0.01 | 0.00 | 42 | 1021.6 |
| 20260901183017 | 74 | 140 | 3.5 | 7.0 | 0.00 | 0.01 | 0.00 | 41 | 1021.7 |
| 20260901181505 | 74 | 106 | 0.9 | 6.1 | 0.00 | 0.01 | 0.00 | 43 | 1021.8 |
| 20260901180006 | 74 | 120 | 2.6 | 7.0 | 0.00 | 0.01 | 0.00 | 43 | 1022.1 |
| 20260901174502 | 73 | 122 | 0.9 | 3.5 | 0.00 | 0.01 | 0.00 | 47 | 1022.3 |
| 20260901173138 | 71 | 129 | 0.0 | 4.3 | 0.00 | 0.01 | 0.00 | 52 | 1022.4 |
| 20260901171558 | 69 | 111 | 0.9 | 4.3 | 0.00 | 0.01 | 0.00 | 52 | 1022.8 |
| 20260901170055 | 67 | 126 | 1.7 | 5.2 | 0.00 | 0.01 | 0.00 | 60 | 1023.0 |
| 20260901164548 | 65 | 202 | 0.0 | 1.7 | 0.00 | 0.01 | 0.00 | 62 | 1022.9 |
| 20260901163103 | 62 | 121 | 0.0 | 2.6 | 0.00 | 0.01 | 0.00 | 72 | 1022.8 |
| 20260901161549 | 62 | 116 | 0.0 | 1.7 | 0.00 | 0.01 | 0.00 | 72 | 1022.5 |
| 20260901160040 | 61 | 271 | 0.0 | 0.0 | 0.00 | 0.01 | 0.00 | 77 | 1022.6 |
| 20260901154533 | 59 | 271 | 0.0 | 1.7 | 0.00 | 0.01 | 0.00 | 78 | 1022.4 |
| 20260901153031 | 59 | 260 | 0.0 | 0.9 | 0.00 | 0.01 | 0.00 | 80 | 1022.7 |
| 20260901151531 | 59 | 260 | 0.0 | 0.0 | 0.00 | 0.01 | 0.00 | 81 | 1022.7 |
| 20260901150032 | 59 | 260 | 0.0 | 0.9 | 0.00 | 0.01 | 0.00 | 79 | 1022.4 |
| 20260901144528 | 58 | 260 | 0.0 | 0.0 | 0.00 | 0.01 | 0.00 | 79 | 1022.5 |
| 20260901143029 | 58 | 260 | 0.0 | 0.9 | 0.00 | 0.01 | 0.00 | 80 | 1022.4 |
| 20260901141535 | 57 | 260 | 0.0 | 0.9 | 0.00 | 0.01 | 0.00 | 80 | 1022.3 |
| 20260901140027 | 57 | 260 | 0.0 | 0.9 | 0.00 | 0.01 | 0.00 | 81 | 1022.4 |
| 20260901134527 | 57 | 148 | 0.0 | 4.3 | 0.00 | 0.01 | 0.00 | 80 | 1022.4 |
| 20260901133026 | 57 | 349 | 0.0 | 1.7 | 0.00 | 0.01 | 0.00 | 79 | 1021.8 |
| 20260901131532 | 57 | 107 | 0.0 | 0.9 | 0.00 | 0.01 | 0.00 | 78 | 1021.7 |
| 20260901130025 | 58 | 126 | 0.0 | 1.7 | 0.00 | 0.01 | 0.00 | 74 | 1021.3 |
| 20260901124524 | 56 | 117 | 0.0 | 1.7 | 0.00 | 0.01 | 0.00 | 83 | 1021.1 |
| 20260901123031 | 55 | 117 | 0.0 | 0.0 | 0.00 | 0.01 | 0.00 | 84 | 1021.1 |
| 20260901121524 | 55 | 117 | 0.0 | 0.9 | 0.00 | 0.01 | 0.00 | 84 | 1020.9 |
| 20260901120022 | 56 | 120 | 0.0 | 0.9 | 0.00 | 0.01 | 0.00 | 84 | 1020.9 |
| 20260901114522 | 55 | 119 | 0.0 | 1.7 | 0.00 | 0.01 | 0.00 | 85 | 1020.8 |
| 20260901113022 | 55 | 119 | 0.0 | 0.9 | 0.00 | 0.01 | 0.00 | 85 | 1020.9 |
| 20260901111521 | 55 | 120 | 0.0 | 0.9 | 0.00 | 0.01 | 0.00 | 85 | 1020.9 |
| 20260901110019 | 56 | 120 | 0.0 | 0.0 | 0.00 | 0.01 | 0.00 | 84 | 1021.0 |
| 20260901104521 | 56 | 112 | 0.0 | 2.6 | 0.00 | 0.01 | 0.00 | 84 | 1021.3 |
| 20260901103018 | 56 | 203 | 0.0 | 0.9 | 0.00 | 0.01 | 0.00 | 85 | 1021.3 |
| 20260901101517 | 56 | 202 | 0.0 | 0.9 | 0.00 | 0.01 | 0.00 | 84 | 1021.4 |
| 20260901100015 | 56 | 254 | 0.0 | 0.0 | 0.00 | 0.01 | 0.00 | 82 | 1021.4 |
| 20260901094513 | 57 | 254 | 0.0 | 0.9 | 0.00 | 0.01 | 0.00 | 82 | 1021.3 |
| 20260901093012 | 57 | 151 | 0.0 | 0.0 | 0.00 | 0.01 | 0.00 | 80 | 1021.4 |
| 20260901091511 | 58 | 151 | 0.0 | 0.9 | 0.00 | 0.01 | 0.00 | 78 | 1021.5 |
| 20260901090016 | 57 | 236 | 0.0 | 0.9 | 0.00 | 0.01 | 0.00 | 79 | 1021.6 |
| 20260901084509 | 57 | 236 | 0.0 | 0.9 | 0.00 | 0.01 | 0.00 | 80 | 1022.0 |
| 20260901083008 | 58 | 236 | 0.0 | 0.9 | 0.00 | 0.01 | 0.00 | 79 | 1022.1 |
| 20260901081508 | 58 | 236 | 0.0 | 0.0 | 0.00 | 0.01 | 0.00 | 78 | 1022.5 |
| 20260901080007 | 58 | 236 | 0.0 | 0.0 | 0.00 | 0.01 | 0.00 | 78 | 1022.7 |
| 20260901074506 | 58 | 129 | 0.0 | 0.0 | 0.00 | 0.01 | 0.00 | 78 | 1022.7 |
| 20260901073006 | 58 | 153 | 0.0 | 0.0 | 0.00 | 0.01 | 0.00 | 78 | 1022.7 |
| 20260901071504 | 57 | 153 | 0.0 | 0.0 | 0.00 | 0.01 | 0.00 | 78 | 1022.2 |
| 20260901070003 | 57 | 153 | 0.0 | 0.0 | 0.00 | 0.01 | 0.00 | 78 | 1022.1 |
| 20260901064503 | 57 | 153 | 0.0 | 0.0 | 0.00 | 0.01 | 0.00 | 78 | 1022.1 |
| 20260901063002 | 57 | 154 | 0.0 | 0.0 | 0.00 | 0.01 | 0.00 | 78 | 1022.1 |
| 20260901061600 | 58 | 154 | 0.0 | 0.9 | 0.00 | 0.01 | 0.00 | 77 | 1022.0 |
| 20260901060056 | 58 | 153 | 0.0 | 0.0 | 0.00 | 0.01 | 0.00 | 76 | 1022.0 |
| 20260901054557 | 59 | 154 | 0.0 | 0.0 | 0.00 | 0.01 | 0.01 | 74 | 1022.0 |
| 20260901053104 | 59 | 153 | 0.0 | 0.0 | 0.00 | 0.01 | 0.01 | 74 | 1022.0 |
| 20260901051605 | 60 | 153 | 0.0 | 0.0 | 0.00 | 0.01 | 0.01 | 73 | 1022.2 |
| 20260901050056 | 60 | 152 | 0.0 | 0.0 | 0.00 | 0.01 | 0.01 | 72 | 1022.4 |
| 20260901044604 | 59 | 264 | 0.0 | 0.9 | 0.00 | 0.04 | 0.01 | 74 | 1022.4 |
| 20260901043054 | 59 | 156 | 0.0 | 0.0 | 0.00 | 0.04 | 0.01 | 75 | 1022.8 |
| 20260901041616 | 60 | 164 | 0.0 | 0.9 | 0.00 | 0.04 | 0.01 | 73 | 1022.7 |
| 20260901040132 | 60 | 138 | 0.0 | 0.9 | 0.00 | 0.04 | 0.01 | 72 | 1022.6 |
| 20260901034553 | 60 | 273 | 0.0 | 0.0 | 0.00 | 0.07 | 0.01 | 72 | 1022.4 |
| 20260901033052 | 60 | 273 | 0.0 | 1.7 | 0.00 | 0.07 | 0.01 | 72 | 1022.4 |
| 20260901031554 | 60 | 290 | 0.0 | 0.9 | 0.00 | 0.07 | 0.01 | 73 | 1022.7 |
| 20260901030055 | 61 | 191 | 0.0 | 0.0 | 0.01 | 0.07 | 0.01 | 73 | 1022.2 |
| 20260901024554 | 63 | 191 | 0.0 | 2.6 | 0.01 | 0.07 | 0.01 | 68 | 1022.1 |
| 20260901023054 | 63 | 268 | 1.7 | 5.2 | 0.01 | 0.07 | 0.01 | 61 | 1021.8 |
| 20260901021549 | 63 | 277 | 3.5 | 13.0 | 0.01 | 0.07 | 0.01 | 64 | 1021.8 |
| 20260901020049 | 64 | 250 | 6.1 | 19.1 | 0.00 | 0.06 | 0.00 | 64 | 1021.7 |
| 20260901014548 | 70 | 276 | 4.3 | 14.8 | 0.00 | 0.06 | 0.00 | 47 | 1021.2 |
| 20260901013054 | 70 | 238 | 0.0 | 4.3 | 0.00 | 0.06 | 0.00 | 45 | 1020.6 |
| 20260901011547 | 70 | 116 | 0.9 | 4.3 | 0.00 | 0.06 | 0.00 | 43 | 1020.6 |
| 20260901010059 | 71 | 101 | 1.7 | 7.0 | 0.00 | 0.06 | 0.00 | 42 | 1020.5 |
| 20260901004547 | 72 | 122 | 4.3 | 9.6 | 0.00 | 0.06 | 0.00 | 40 | 1020.3 |
| 20260901003046 | 74 | 114 | 3.5 | 6.1 | 0.00 | 0.06 | 0.00 | 37 | 1020.2 |
| 20260901001545 | 74 | 96 | 3.5 | 10.4 | 0.00 | 0.06 | 0.00 | 36 | 1020.3 |
| 20260901000045 | 74 | 134 | 1.7 | 7.8 | 0.00 | 0.06 | 0.00 | 37 | 1020.4 |
| 20260831234544 | 75 | 103 | 3.5 | 8.7 | 0.00 | 0.06 | 0.00 | 36 | 1020.5 |